Change the Weather History Date:

Saturday, July 13, 2013

  Actual Average (KRFD) Record (KRFD)
Temperature  
Mean Temperature 70 °F 74 °F  
Max Temperature 83 °F 85 °F 110 °F (1936)
Min Temperature 56 °F 63 °F 47 °F (1940)
Degree Days  
Heating Degree Days 0 0  
Month to date heating degree days 0  
Since 1 June heating degree days 31  
Since 1 July heating degree days 0  
Cooling Degree Days 4 9  
Month to date cooling degree days 117  
Year to date cooling degree days 347  
Since 1 June cooling degree days 292  
Growing Degree Days 20 (Base 50)    
Moisture  
Dew Point 58 °F    
Average Humidity 67    
Maximum Humidity 93    
Minimum Humidity 40    
Precipitation  
Precipitation 0.00 in 0.13 in 1.37 in (1906)
Month to date precipitation 1.64  
Year to date precipitation 18.76  
Snow  
Snow 0.00 in 0.00 in 0.00 in ()
Month to date snowfall 0.0  
Since 1 June snowfall 0.0  
Since 1 July snowfall 0.0  
Snow Depth -    
Sea Level Pressure  
Sea Level Pressure 30.14 in    
Wind  
Wind Speed 5 mph (SE)    
Max Wind Speed 9 mph    
Max Gust Speed -    
Visibility 9 miles    
Events      
T = Trace of Precipitation, MM = Missing Value Source: NWS Daily Summary

Daily Weather History Graph

Daily Weather History Graph

Search for Another Location

Airport or City:

Trip Planner

Search our weather history database for the weather conditions in past years. The results will help you decide how hot, cold, wet, or windy it might be!

Date:

Astronomy

Jul. 13, 2013 Rise Set
Actual Time 5:32 AM CDT 8:30 PM CDT
Civil Twilight 4:59 AM CDT 9:04 PM CDT
Nautical Twilight 4:17 AM CDT 9:46 PM CDT
Astronomical Twilight 3:27 AM CDT 10:35 PM CDT
Moon 10:54 AM CDT (7/13) 11:05 PM CDT (7/13)
Length of Visible Light 16h 04m
Length of Day
14h 57m
Waxing Crescent, 26% of the Moon is Illuminated
Jul 13
Waxing Crescent
Jul 15
First Quarter
Jul 22
Full
Jul 29
Last Quarter
Aug 6
New

Hourly Weather History & Observations

Time (CDT) Temp. Heat Index Dew Point Humidity Pressure Visibility Wind Dir Wind Speed Gust Speed Precip Events Conditions
12:15 AM 59.9 °F - 55.4 °F 85% 30.11 in 10.0 mi ESE 8.1 mph - N/A   Clear
12:35 AM 60.3 °F - 55.4 °F 84% 30.11 in 10.0 mi ESE 6.9 mph - N/A   Clear
12:55 AM 59.2 °F - 55.6 °F 88% 30.11 in 10.0 mi SE 6.9 mph - N/A   Clear
1:15 AM 59.9 °F - 55.6 °F 86% 30.12 in 10.0 mi SE 6.9 mph - N/A   Clear
1:35 AM 59.9 °F - 55.6 °F 86% 30.12 in 10.0 mi ESE 5.8 mph - N/A   Clear
1:55 AM 59.9 °F - 55.4 °F 85% 30.13 in 10.0 mi ESE 5.8 mph - N/A   Clear
2:15 AM 59.2 °F - 55.4 °F 87% 30.14 in 10.0 mi ESE 3.5 mph - N/A   Clear
2:35 AM 58.1 °F - 54.7 °F 88% 30.13 in 10.0 mi ESE 4.6 mph - N/A   Clear
2:55 AM 57.9 °F - 54.9 °F 90% 30.14 in 10.0 mi ESE 4.6 mph - N/A   Clear
3:15 AM 57.2 °F - 54.3 °F 90% 30.13 in 7.0 mi SE 3.5 mph - N/A   Clear
3:35 AM 56.7 °F - 54.5 °F 92% 30.13 in 7.0 mi SE 4.6 mph - N/A   Clear
3:55 AM 57.6 °F - 55.2 °F 92% 30.12 in 7.0 mi ESE 5.8 mph - N/A   Clear
4:15 AM 58.8 °F - 55.9 °F 90% 30.13 in 7.0 mi ESE 4.6 mph - N/A   Clear
4:35 AM 57.2 °F - 54.7 °F 91% 30.14 in 7.0 mi SE 3.5 mph - N/A   Clear
4:55 AM 56.3 °F - 54.3 °F 93% 30.14 in 7.0 mi SE 3.5 mph - N/A   Clear
5:15 AM 57.6 °F - 55.4 °F 92% 30.14 in 7.0 mi ESE 4.6 mph - N/A   Clear
5:35 AM 57.2 °F - 54.9 °F 92% 30.13 in 5.0 mi ESE 4.6 mph - N/A   Clear
5:55 AM 58.5 °F - 56.3 °F 93% 30.14 in 5.0 mi SE 3.5 mph - N/A   Clear
6:15 AM 57.9 °F - 55.4 °F 91% 30.14 in 4.0 mi Calm Calm - N/A   Clear
6:35 AM 59.5 °F - 57.2 °F 92% 30.16 in 4.0 mi SE 3.5 mph - N/A   Clear
6:55 AM 61.5 °F - 58.6 °F 90% 30.17 in 5.0 mi Calm Calm - N/A   Clear
7:15 AM 64.4 °F - 60.3 °F 86% 30.17 in 7.0 mi Calm Calm - N/A   Clear
7:35 AM 66.0 °F - 61.7 °F 86% 30.15 in 7.0 mi SE 5.8 mph - N/A   Clear
7:55 AM 68.4 °F - 62.2 °F 81% 30.16 in 10.0 mi SE 4.6 mph - N/A   Clear
8:15 AM 70.7 °F - 61.7 °F 73% 30.16 in 10.0 mi Calm Calm - N/A   Clear
8:35 AM 71.6 °F - 61.3 °F 70% 30.17 in 10.0 mi Calm Calm - N/A   Clear
8:55 AM 73.0 °F - 61.5 °F 67% 30.18 in 10.0 mi Calm Calm - N/A   Clear
9:15 AM 73.9 °F - 59.0 °F 59% 30.17 in 10.0 mi SSE 4.6 mph - N/A   Clear
9:35 AM 75.2 °F - 59.0 °F 57% 30.17 in 10.0 mi SE 3.5 mph - N/A   Clear
9:55 AM 76.1 °F - 59.0 °F 55% 30.17 in 10.0 mi SE 5.8 mph - N/A   Clear
10:15 AM 76.5 °F - 58.1 °F 53% 30.17 in 10.0 mi SSE 5.8 mph - N/A   Clear
10:35 AM 77.0 °F - 57.4 °F 51% 30.17 in 10.0 mi SSE 6.9 mph - N/A   Clear
10:55 AM 77.7 °F - 57.4 °F 49% 30.17 in 10.0 mi SE 5.8 mph - N/A   Clear
11:15 AM 77.7 °F - 55.9 °F 47% 30.16 in 10.0 mi SE 3.5 mph - N/A   Clear
11:35 AM 78.1 °F - 57.2 °F 49% 30.15 in 10.0 mi SSE 6.9 mph - N/A   Clear
11:55 AM 79.5 °F - 57.0 °F 46% 30.16 in 10.0 mi SE 5.8 mph - N/A   Clear
12:15 PM 79.7 °F - 56.7 °F 45% 30.16 in 10.0 mi SE 6.9 mph - N/A   Clear
12:35 PM 79.9 °F - 57.4 °F 46% 30.16 in 10.0 mi SSE 5.8 mph - N/A   Clear
12:55 PM 80.6 °F 80.6 °F 55.9 °F 43% 30.16 in 10.0 mi SE 4.6 mph - N/A   Clear
1:15 PM 81.3 °F 80.9 °F 55.0 °F 40% 30.15 in 10.0 mi East 9.2 mph - N/A   Clear
1:35 PM 81.7 °F 81.2 °F 55.4 °F 40% 30.15 in 10.0 mi SE 5.8 mph - N/A   Clear
1:55 PM 82.2 °F 81.6 °F 55.8 °F 40% 30.15 in 10.0 mi ESE 9.2 mph - N/A   Clear
2:15 PM 81.9 °F 81.9 °F 58.3 °F 45% 30.14 in 10.0 mi ESE 8.1 mph - N/A   Clear
2:35 PM 82.6 °F 82.0 °F 55.9 °F 40% 30.14 in 10.0 mi SE 3.5 mph - N/A   Clear
2:55 PM 82.8 °F 82.2 °F 56.7 °F 41% 30.14 in 10.0 mi SSE 5.8 mph - N/A   Clear
3:15 PM 83.1 °F 82.6 °F 57.0 °F 41% 30.14 in 10.0 mi ESE 4.6 mph - N/A   Clear
3:35 PM 82.8 °F 82.1 °F 56.5 °F 40% 30.13 in 10.0 mi East 9.2 mph - N/A   Clear
3:55 PM 82.9 °F 82.3 °F 56.1 °F 40% 30.13 in 10.0 mi SE 4.6 mph - N/A   Clear
4:15 PM 82.8 °F 82.5 °F 57.9 °F 43% 30.13 in 10.0 mi SE 5.8 mph - N/A   Clear
4:35 PM 82.8 °F 82.2 °F 56.8 °F 41% 30.12 in 10.0 mi ESE 8.1 mph - N/A   Clear
4:55 PM 82.8 °F 82.4 °F 57.2 °F 42% 30.12 in 10.0 mi SE 5.8 mph - N/A   Clear
5:15 PM 83.3 °F 82.6 °F 56.3 °F 40% 30.12 in 10.0 mi ESE 6.9 mph - N/A   Clear
5:35 PM 82.2 °F 82.0 °F 57.6 °F 43% 30.12 in 10.0 mi SE 5.8 mph - N/A   Clear
5:55 PM 81.9 °F 81.7 °F 57.4 °F 43% 30.12 in 10.0 mi ESE 3.5 mph - N/A   Clear
6:15 PM 82.2 °F 82.1 °F 58.1 °F 44% 30.11 in 10.0 mi SE 5.8 mph - N/A   Clear
6:35 PM 81.0 °F 81.5 °F 59.5 °F 48% 30.12 in 10.0 mi SSE 3.5 mph - N/A   Clear
6:55 PM 79.9 °F - 61.3 °F 53% 30.12 in 10.0 mi SE 4.6 mph - N/A   Clear
7:15 PM 78.6 °F - 62.1 °F 57% 30.12 in 10.0 mi SSE 3.5 mph - N/A   Clear
7:35 PM 76.8 °F - 63.5 °F 63% 30.12 in 10.0 mi SSE 4.6 mph - N/A   Clear
7:55 PM 75.2 °F - 63.3 °F 66% 30.12 in 10.0 mi SE 3.5 mph - N/A   Clear
8:15 PM 73.0 °F - 63.7 °F 72% 30.12 in 10.0 mi SE 3.5 mph - N/A   Clear
8:35 PM 70.7 °F - 64.4 °F 80% 30.12 in 10.0 mi SE 3.5 mph - N/A   Clear
8:55 PM 70.2 °F - 63.0 °F 78% 30.13 in 10.0 mi ESE 3.5 mph - N/A   Clear
9:15 PM 68.5 °F - 63.0 °F 82% 30.14 in 10.0 mi ESE 4.6 mph - N/A   Clear
9:35 PM 68.9 °F - 62.4 °F 80% 30.15 in 10.0 mi ESE 5.8 mph - N/A   Clear
9:55 PM 68.7 °F - 61.7 °F 78% 30.15 in 10.0 mi ENE 3.5 mph - N/A   Clear
10:15 PM 68.4 °F - 61.7 °F 79% 30.15 in 10.0 mi East 5.8 mph - N/A   Clear
10:35 PM 67.1 °F - 61.7 °F 83% 30.16 in 10.0 mi East 6.9 mph - N/A   Clear
10:55 PM 68.7 °F - 61.7 °F 78% 30.16 in 10.0 mi East 4.6 mph - N/A   Clear
11:15 PM 68.7 °F - 61.7 °F 78% 30.16 in 10.0 mi East 5.8 mph - N/A   Clear
11:35 PM 68.2 °F - 61.5 °F 79% 30.16 in 10.0 mi East 4.6 mph - N/A   Clear
11:55 PM 67.6 °F - 61.0 °F 79% 30.16 in 10.0 mi East 4.6 mph - N/A   Clear